Weather Roundup
Issued by NWS Corpus Christi, TX

Home | Current Version | Previous Version | Text Only | Print | Product List | Glossary On
Versions: 1 2 3 4 5 6 7 8 9 10 11 12 13 14 15 16 17 18 19 20 21 22 23 24 25 26 27 28 29 30 31 32 33 34 35 36 37 38 39 40 41 42 43 44 45 46 47 48 49 50
000
ASUS44 KCRP 290310
HRRCRP

SOUTH TEXAS REGIONAL WEATHER ROUNDUP
NATIONAL WEATHER SERVICE CORPUS CHRISTI TX
1000 PM CDT SUN AUG 28 2016


TXZ229>244-290400-
...CORPUS CHRISTI AREA OBSERVATIONS...

CITY           SKY/WX    TMP DP  RH WIND       PRES   REMARKS
CORPUS CHRISTI PTCLDY    83  74  74 NE10      29.92R
NAS CORPUS CHR PTCLDY    84  77  79 NE14      29.91R HX  94
ROCKPORT       PTCLDY    83  74  74 NE8       29.92R
KINGSVILLE NAS CLEAR     80  75  84 SE5       29.91
ALICE          CLEAR     81  73  76 E6        29.92R
FALFURRIAS     CLEAR     82  74  77 E3        29.91R
$$

...VICTORIA AREA OBSERVATIONS...

CITY           SKY/WX    TMP DP  RH WIND       PRES   REMARKS
VICTORIA       CLEAR     75  74  96 NE8       29.95R
BEEVILLE       FAIR      78  75  88 NE5       29.94R
PLEASANTON     PTCLDY    80  71  73 NE3       29.96R
SAN ANTONIO    PTCLDY    76  72  87 NE6       30.00R
$$

...LAREDO AREA OBSERVATIONS...

CITY           SKY/WX    TMP DP  RH WIND       PRES   REMARKS
LAREDO         CLEAR     86  70  58 NE8       29.93R HX  90
COTULLA        CLEAR     84  69  60 E5        29.95R
DEL RIO        CLOUDY    77  70  79 E8        30.00R
MCALLEN        PTCLDY    87  72  60 E12       29.91R HX  93
HEBBRONVILLE   CLEAR     81  70  68 NE5       29.95R
$$

...OTHER TEXAS OBSERVATIONS...

CITY           SKY/WX    TMP DP  RH WIND       PRES   REMARKS
BROWNSVILLE    CLEAR     82  75  79 E3        29.91R
HOUSTON        MOCLDY    77  75  93 NE6       29.96R
COL. STATION   PTCLDY    76  74  93 CALM      29.98R
AUSTIN         MOCLDY    78  71  79 NE7       30.01R
WACO           PTCLDY    79  70  74 E10       30.02R
FORT WORTH     PTCLDY    84  69  60 SE14      30.02R
WICHITA FALLS  CLEAR     78  67  68 SE5       30.05R
LUBBOCK        LGT RAIN  71  66  84 SE13      30.14S
EL PASO        PTCLDY    79  58  48 N12       30.09R
$$

...MARINE OBSERVATIONS...

STATION/POSITION TIME  SKY/WX   TEMP    WIND        PRES    VSBY  WAVE   SWELL
                                AIR SEA DIR/SP/G                  HT/PER HT/PER
                 (UTC)          (F)     (DEG/KT/KT) (MB)    (MI)  (FT/S) (FT/S)
PORT ARANSAS     0300            83 87   40/ 12/ 13 1013.0R
BUOY 90 E PORT A 0250            84 86   70/ 10/ 12 1012.1R         3/ 5   2/ 5
BUOY 45 SE BAFFI 0250            83 86   60/  4/  6 1012.0R         2/ 6   2/ 6
BUOY 200 E PT IS 0250            85 87   90/  4/  6 1011.0R         2/ 6   2/ 6
BUOY 15 E GALVES 0250            83 85   70/ 17/ 21 1012.5R         4/ 5
$$



USA.gov is the U.S. government's official web portal to all federal, state and local government web resources and services.